Retour au catalogue

STARLINK-5498

ActifCommunicationsVLEO
NORAD 55633·PAYLOAD·🇺🇸 United States

Lancé Feb 17, 2023 depuis Vandenberg Space Force Base

Loading…

Prochains Passages (prochaines 24 heures)

TLE

FraisSource: CelesTrak SupGP

Époque: Sep 14, 2026, 22:26 UTC

1 55633C 23021F   26257.93520833  .00036582  00000+0  30661-2 0  2573
2 55633  70.0004  87.2841 0002702 272.2820 163.7678 14.98307848    10

Suivez STARLINK-5498 en temps réel avec AllMySat

Download on the App Store